Regional Weather Roundup
Issued by NWS

Home | Current Version | Previous Version | Text Only | Print | Product List | Glossary On
Versions: 1 2 3 4 5 6 7 8 9 10 11 12 13 14 15 16 17 18 19 20 21 22 23 24 25 26 27 28 29 30 31 32 33 34 35 36 37 38 39 40 41 42 43 44 45 46 47 48 49 50
000
ASUS44 KJAN 290410
RWRMS

MISSISSIPPI HOURLY WEATHER ROUNDUP
NATIONAL WEATHER SERVICE JACKSON MS
1100 PM CDT TUE JUL 28 2015

NOTE: "FAIR: INDICATES FEW OR NO CLOUDS BELOW 12,000 FEET WITH NO
SIGNIFICANT WEATHER AND/OR OBSTRUCTIONS TO VISIBILITY.

MSZ001>002-007>008-010>013-018>021-025>028-034>036-290500-
NORTHWEST MISSISSIPPI

CITY           SKY/WX    TMP DP  RH WIND       PRES   REMARKS
CLARKSDALE     FAIR      82  81  94 CALM      30.00R HX  95
CLEVELAND      FAIR      82  79  91 CALM      29.99R HX  92
GREENWOOD      CLEAR     81  78  91 CALM      30.00R
GREENVILLE     CLEAR     83  79  88 SE3       29.98R HX  94
OLIVE BRANCH     N/A     82  79  89 CALM      30.01S HX  93
OXFORD         FAIR      77  75  94 CALM      30.03R
TUNICA         CLEAR     81  77  89 CALM      30.00R
$$

MSZ003>006-009-014>017-022>024-029>033-037>039-290500-
NORTHEAST MISSISSIPPI

CITY           SKY/WX    TMP DP  RH WIND       PRES   REMARKS
COLUMBUS AFB   NOT AVBL
CORINTH        FAIR      81  77  89 CALM      30.01S
GOLDN TRIANGLE CLEAR     84  73  70 CALM      30.00R HX  91
STARKVILLE     FAIR      77  75  94 CALM      30.01R
TUPELO         CLEAR     83  77  82 CALM      30.00R HX  92
$$

MSZ040-058-290500-
CENTRAL MISSISSIPPI

CITY           SKY/WX    TMP DP  RH WIND       PRES   REMARKS
JACKSON INTL   PTCLDY    82  74  76 CALM      30.00R
JACKSON HAWKNS CLEAR     83  74  74 CALM      30.00R
MERIDIAN KEY   CLEAR     77  74  90 CALM      30.00R
MERIDIAN NAS   MOCLDY    79  75  87 CALM      30.00R
VICKSBURG      CLEAR     77  73  87 CALM      29.99R
$$

MSZ059>079-290500-
SOUTH MISSISSIPPI

CITY           SKY/WX    TMP DP  RH WIND       PRES   REMARKS
BROOKHAVEN     FAIR      79  73  83 CALM      30.03R
HATTIESBURG    CLEAR     80  77  90 CALM      29.99S
MCCOMB         CLEAR     80  75  84 CALM      30.02R
NATCHEZ        CLEAR     81  75  83 S3        30.01R
PINE BELT      PTCLDY    79  72  78 CALM      30.02R
$$

MSZ080>082-290500-
COASTAL MISSISSIPPI

CITY           SKY/WX    TMP DP  RH WIND       PRES   REMARKS
BILOXI         NOT AVBL
PASCAGOULA     CLEAR     78  76  93 CALM      29.99R
GULFPORT       CLEAR     80  74  81 CALM      29.99R
$$



USA.gov is the U.S. government's official web portal to all federal, state and local government web resources and services.